Location: Bullenkuhlen
(53.7689°N, 9.7495°E)
Time: 10:58:52
(UTC+00:00)

Cosmos 2173 Rocket - Pass Details

Date: 09 April 2020
Orbit: 945 x 1000 km, 83.0° (Epoch: 24 May)

Event Time Altitude Azimuth Distance (km) Brightness Sun altitude
Rises 22:17:02 0° 349° (N) 3,629 8.3 -26.7°
Reaches altitude 10° 22:19:32 10° 352° (N) 2,681 7.3 -26.8°
Maximum altitude 22:25:39 71° 77° (ENE) 1,007 3.9 -27.1°
Enters shadow 22:26:17 66° 117° (ESE) 1,038 3.9 -27.1°
